Location: Runa
(38.1429°N, 80.8510°W)
Time: 04:00:54
(UTC+00:00)

Hubble Space Telescope - Pass Details

Date: 27 April 2026
Orbit: 473 x 476 km, 28.5° (Epoch: 11 May)

Event Time Altitude Azimuth Distance (km) Brightness Sun altitude
Rises 00:44:47 0° 236° (SW) 2,505 4.7 -7.2°
Reaches altitude 10° 00:47:31 10° 215° (SW) 1,629 3.4 -7.7°
Maximum altitude 00:50:01 17° 173° (S) 1,256 2.4 -8.1°
Enters shadow 00:52:26 10° 132° (SE) 1,607 2.6 -8.6°
